La Porte, IN

5:16 AM CDT on September 29, 2016 (GMT -0500)
La Porte Municipal

Weather History for KPPO - January, 2013

Change the Weather History Date:

Friday, January 25, 2013

  Actual Average (KVPZ) Record (KVPZ)
Temperature  
Mean Temperature 20 °F 24 °F  
Max Temperature 25 °F 31 °F 50 °F (2002)
Min Temperature 16 °F 16 °F -8 °F (2008)
Degree Days  
Heating Degree Days 44 41  
Month to date heating degree days 1040  
Since 1 July heating degree days 3442  
Cooling Degree Days 0 0  
Month to date cooling degree days 0  
Year to date cooling degree days 0  
Moisture  
Dew Point 14 °F    
Average Humidity 77    
Maximum Humidity 89    
Minimum Humidity 62    
Precipitation  
Precipitation 0.01 in 0.06 in 0.24 in (2005)
Month to date precipitation 1.40  
Year to date precipitation 1.40  
Sea Level Pressure  
Sea Level Pressure 30.11 in    
Wind  
Wind Speed 6 mph (SSW)    
Max Wind Speed 14 mph    
Max Gust Speed 21 mph    
Visibility 8 miles    
Events Snow    
T = Trace of Precipitation, MM = Missing Value Source: NWS Daily Summary

Daily Weather History Graph

Daily Weather History Graph

Search for Another Location

Airport or City:

Trip Planner

Search our weather history database for the weather conditions in past years. The results will help you decide how hot, cold, wet, or windy it might be!

Date:

Astronomy

Jan. 25, 2013 Rise Set
Actual Time 7:04 AM CST 4:54 PM CST
Civil Twilight 6:34 AM CST 5:24 PM CST
Nautical Twilight 6:01 AM CST 5:57 PM CST
Astronomical Twilight 5:28 AM CST 6:30 PM CST
Moon 3:51 PM CST (1/25) 5:44 AM CST (1/25)
Length of Visible Light 10h 49m
Length of Day
9h 49m
Waxing Gibbous, 98% of the Moon is Illuminated
Jan 25
Waxing Gibbous
Jan 26
Full
Feb 3
Last Quarter
Feb 10
New
Feb 17
First Quarter

Hourly Weather History & Observations

Time (CST) Temp. Windchill Dew Point Humidity Pressure Visibility Wind Dir Wind Speed Gust Speed Precip Events Conditions
12:15 AM 16.0 °F 8.8 °F 7.7 °F 70% 30.38 in 10.0 mi ESE 4.6 mph - N/A   Overcast
12:35 AM 16.0 °F 7.4 °F 8.4 °F 72% 30.37 in 10.0 mi ESE 5.8 mph - N/A   Overcast
12:55 AM 16.3 °F - 8.1 °F 70% 30.37 in 10.0 mi Calm Calm - N/A   Overcast
1:15 AM 16.5 °F 11.0 °F 7.9 °F 69% 30.35 in 10.0 mi SE 3.5 mph - N/A   Overcast
1:35 AM 16.7 °F 11.2 °F 8.4 °F 70% 30.34 in 10.0 mi SE 3.5 mph - N/A   Overcast
1:55 AM 17.6 °F 8.2 °F 8.4 °F 67% 30.33 in 10.0 mi SE 6.9 mph - N/A   Overcast
2:15 AM 17.4 °F 9.1 °F 8.4 °F 68% 30.31 in 10.0 mi SE 5.8 mph - N/A   Mostly Cloudy
2:35 AM 17.2 °F 7.8 °F 8.4 °F 68% 30.29 in 10.0 mi SE 6.9 mph - N/A   Scattered Clouds
2:55 AM 17.2 °F 8.9 °F 8.6 °F 69% 30.28 in 10.0 mi SE 5.8 mph - N/A   Clear
3:15 AM 17.2 °F 10.2 °F 9.0 °F 70% 30.27 in 10.0 mi SSE 4.6 mph - N/A   Clear
3:35 AM 17.4 °F 8.0 °F 9.1 °F 70% 30.26 in 10.0 mi SSE 6.9 mph - N/A   Mostly Cloudy
3:55 AM 17.4 °F 9.1 °F 9.0 °F 69% 30.24 in 10.0 mi SE 5.8 mph - N/A   Overcast
4:15 AM 17.4 °F 8.0 °F 9.3 °F 71% 30.21 in 10.0 mi SSE 6.9 mph - N/A   Overcast
4:35 AM 17.4 °F 7.1 °F 9.0 °F 69% 30.19 in 10.0 mi SSE 8.1 mph - N/A   Overcast
4:55 AM 17.4 °F 8.0 °F 8.6 °F 68% 30.19 in 10.0 mi SSE 6.9 mph - N/A   Overcast
5:15 AM 17.6 °F 9.3 °F 8.4 °F 67% 30.19 in 10.0 mi SSE 5.8 mph - N/A   Overcast
5:35 AM 17.6 °F 12.3 °F 8.6 °F 68% 30.19 in 10.0 mi SSE 3.5 mph - N/A   Overcast
6:15 AM 16.7 °F 9.6 °F 10.9 °F 78% 30.18 in 2.0 mi SSE 4.6 mph - N/A Snow Light Snow
6:35 AM 16.3 °F 10.8 °F 12.6 °F 85% 30.17 in 2.5 mi SE 3.5 mph - N/A Snow Light Snow
6:55 AM 16.3 °F 10.8 °F 12.7 °F 86% 30.16 in 3.0 mi ESE 3.5 mph - N/A Snow Light Snow
7:15 AM 16.3 °F - 13.1 °F 87% 30.16 in 1.8 mi Calm Calm - N/A Snow Light Snow
7:35 AM 16.2 °F 9.0 °F 13.1 °F 88% 30.15 in 1.8 mi SE 4.6 mph - N/A Snow Light Snow
7:55 AM 16.3 °F 7.8 °F 13.6 °F 89% 30.14 in 2.0 mi SSE 5.8 mph - 0.01 in Snow Light Snow
8:15 AM 16.5 °F 9.4 °F 13.6 °F 88% 30.14 in 2.5 mi South 4.6 mph - N/A Snow Light Snow
8:35 AM 16.7 °F 8.3 °F 13.6 °F 88% 30.14 in 3.0 mi SSE 5.8 mph - N/A Snow Light Snow
8:55 AM 17.1 °F 7.6 °F 14.0 °F 88% 30.12 in 2.0 mi South 6.9 mph - N/A Snow Light Snow
9:15 AM 17.4 °F 9.1 °F 14.0 °F 86% 30.12 in 2.5 mi South 5.8 mph - N/A Snow Light Snow
9:35 AM 18.0 °F 9.8 °F 14.0 °F 84% 30.11 in 2.5 mi South 5.8 mph - N/A Snow Light Snow
9:55 AM 18.3 °F 7.3 °F 14.0 °F 83% 30.11 in 7.0 mi South 9.2 mph - N/A Snow Light Snow
10:15 AM 18.7 °F 10.6 °F 14.4 °F 83% 30.11 in 10.0 mi South 5.8 mph - N/A   Overcast
10:35 AM 19.2 °F 8.4 °F 14.4 °F 81% 30.10 in 10.0 mi South 9.2 mph - N/A   Overcast
10:55 AM 19.6 °F 10.6 °F 14.2 °F 80% 30.09 in 10.0 mi SSW 6.9 mph - N/A   Overcast
11:15 AM 19.9 °F 9.3 °F 14.4 °F 79% 30.07 in 10.0 mi SSW 9.2 mph - N/A   Overcast
11:35 AM 20.1 °F 8.1 °F 14.4 °F 78% 30.06 in 10.0 mi SSW 11.5 mph - N/A   Overcast
11:55 AM 20.3 °F 9.8 °F 14.7 °F 79% 30.05 in 10.0 mi SW 9.2 mph - N/A   Overcast
12:15 PM 20.8 °F 11.2 °F 14.9 °F 78% 30.03 in 10.0 mi SSW 8.1 mph - N/A   Overcast
12:35 PM 21.0 °F 10.6 °F 15.1 °F 78% 30.02 in 10.0 mi SSW 9.2 mph - N/A   Overcast
12:55 PM 21.6 °F 10.6 °F 15.4 °F 77% 30.01 in 10.0 mi SW 10.4 mph - N/A   Overcast
1:15 PM 21.6 °F 10.6 °F 15.4 °F 77% 30.00 in 10.0 mi SW 10.4 mph - N/A   Overcast
1:35 PM 21.9 °F 11.0 °F 15.8 °F 77% 29.99 in 7.0 mi SW 10.4 mph - N/A   Overcast
1:55 PM 22.1 °F 11.3 °F 15.8 °F 77% 29.99 in 7.0 mi SW 10.4 mph - N/A   Overcast
2:15 PM 22.1 °F 11.3 °F 15.8 °F 77% 29.99 in 7.0 mi SW 10.4 mph - N/A   Overcast
2:35 PM 22.6 °F 11.3 °F 16.5 °F 77% 29.98 in 10.0 mi SW 11.5 mph - N/A   Overcast
2:55 PM 22.8 °F 12.9 °F 16.7 °F 77% 29.99 in 10.0 mi SW 9.2 mph - N/A   Overcast
3:15 PM 23.2 °F 13.3 °F 16.9 °F 77% 29.99 in 10.0 mi SW 9.2 mph - N/A   Overcast
3:35 PM 23.5 °F 15.4 °F 17.6 °F 78% 30.00 in 10.0 mi SW 6.9 mph - N/A   Overcast
3:55 PM 23.9 °F 15.0 °F 17.6 °F 77% 30.00 in 10.0 mi WSW 8.1 mph - N/A   Overcast
4:15 PM 23.9 °F 16.8 °F 18.0 °F 78% 30.00 in 10.0 mi WSW 5.8 mph - N/A   Overcast
4:35 PM 24.3 °F 16.3 °F 18.1 °F 77% 30.00 in 4.0 mi West 6.9 mph - N/A Snow Light Snow
4:55 PM 24.3 °F 16.3 °F 18.5 °F 79% 30.02 in 4.0 mi West 6.9 mph - N/A Snow Light Snow
5:15 PM 23.9 °F 16.8 °F 19.2 °F 82% 30.02 in 5.0 mi West 5.8 mph - N/A Snow Light Snow
5:35 PM 23.9 °F 19.5 °F 19.4 °F 83% 30.02 in 5.0 mi West 3.5 mph - N/A Snow Light Snow
5:55 PM 23.7 °F 19.3 °F 19.4 °F 84% 30.01 in 7.0 mi SW 3.5 mph - N/A Snow Light Snow
6:15 PM 23.0 °F - 19.2 °F 85% 30.02 in 10.0 mi Calm Calm - N/A   Overcast
6:35 PM 23.4 °F - 19.4 °F 85% 30.02 in 10.0 mi Calm Calm - N/A   Overcast
6:55 PM 23.0 °F - 19.2 °F 85% 30.02 in 10.0 mi Calm Calm - N/A   Overcast
7:15 PM 23.0 °F - 19.0 °F 85% 30.02 in 10.0 mi Calm Calm - N/A   Overcast
7:35 PM 22.8 °F 18.2 °F 19.0 °F 85% 30.02 in 10.0 mi SSW 3.5 mph - N/A   Overcast
7:55 PM 23.4 °F 18.9 °F 19.0 °F 84% 30.03 in 10.0 mi WSW 3.5 mph - N/A   Overcast
8:15 PM 24.1 °F 18.2 °F 18.9 °F 80% 30.03 in 10.0 mi WSW 4.6 mph - N/A   Overcast
8:35 PM 24.4 °F 18.6 °F 18.9 °F 79% 30.03 in 10.0 mi WSW 4.6 mph - N/A   Overcast
8:55 PM 25.0 °F 16.3 °F 19.4 °F 79% 30.03 in 5.0 mi WNW 8.1 mph - N/A Snow Light Snow
9:15 PM 25.7 °F 17.1 °F 19.2 °F 76% 30.03 in 10.0 mi WNW 8.1 mph - N/A   Overcast
9:35 PM 25.7 °F 15.1 °F 18.3 °F 74% 30.05 in 10.0 mi NW 11.5 mph 18.4 mph N/A Snow Light Snow
9:55 PM 25.5 °F 15.5 °F 17.4 °F 71% 30.06 in 10.0 mi NW 10.4 mph 17.3 mph N/A   Overcast
10:15 PM 25.0 °F 13.1 °F 16.2 °F 69% 30.06 in 10.0 mi NW 13.8 mph - N/A Snow Light Snow
10:35 PM 24.6 °F 13.8 °F 14.0 °F 64% 30.07 in 10.0 mi NW 11.5 mph 19.6 mph N/A   Overcast
10:55 PM 23.9 °F 12.9 °F 12.6 °F 62% 30.08 in 10.0 mi NW 11.5 mph 20.7 mph N/A   Overcast
11:15 PM 23.9 °F 14.2 °F 12.6 °F 62% 30.09 in 10.0 mi NW 9.2 mph - N/A   Overcast
11:35 PM 23.7 °F 12.1 °F 13.1 °F 64% 30.09 in 10.0 mi NW 12.7 mph - N/A   Overcast
11:55 PM 23.7 °F 14.7 °F 12.9 °F 63% 30.11 in 10.0 mi NW 8.1 mph - N/A   Overcast